Weather History for Truckee-Tahoe, CA

Change the Weather History Date:

Saturday, April 6, 2013

  Actual Average Record
Temperature  
Mean Temperature 41 °F -  
Max Temperature 50 °F 52 °F 75 °F (1989)
Min Temperature 32 °F 25 °F 8 °F (2012)
Degree Days  
Heating Degree Days 24    
Moisture  
Dew Point 27 °F    
Average Humidity 62    
Maximum Humidity 80    
Minimum Humidity 43    
Precipitation  
Precipitation 0.00 in - - ()
Sea Level Pressure  
Sea Level Pressure 30.15 in    
Wind  
Wind Speed 6 mph (SW)    
Max Wind Speed 20 mph    
Max Gust Speed 25 mph    
Visibility 10 miles    
Events      
Averages and records for this station are not official NWS values.
T = Trace of Precipitation, MM = Missing Value Source: NWS Daily Summary

Daily Weather History Graph

Daily Weather History Graph

Search for Another Location

Airport:

Trip Planner

Search our weather history database for the weather conditions in past years. The results will help you decide how hot, cold, wet, or windy it might be!

Date:

Astronomy

Apr. 06, 2013 Rise Set
Actual Time 6:36 AM PDT 7:29 PM PDT
Civil Twilight 6:09 AM PDT 7:56 PM PDT
Nautical Twilight 5:37 AM PDT 8:29 PM PDT
Astronomical Twilight 5:03 AM PDT 9:02 PM PDT
Moon 4:22 AM PDT (4/6) 4:04 PM PDT (4/6)
Length of Visible Light 13h 47m
Length of Day
12h 53m
Waning Crescent, 14% of the Moon is Illuminated
Apr 6
Waning Crescent
Apr 10
New
Apr 18
First Quarter
Apr 25
Full
May 2
Last Quarter

Hourly Weather History & Observations

Time (PDT) Temp. Windchill Dew Point Humidity Pressure Visibility Wind Dir Wind Speed Gust Speed Precip Events Conditions
12:15 AM 39.2 °F 33.0 °F 19.4 °F 45% 30.16 in 10.0 mi SW 9.2 mph - N/A   Mostly Cloudy
12:35 AM 39.2 °F 33.6 °F 21.2 °F 49% 30.16 in 10.0 mi SW 8.1 mph - N/A   Mostly Cloudy
12:55 AM 37.4 °F 30.3 °F 21.2 °F 52% 30.16 in 10.0 mi SSW 10.4 mph - N/A   Clear
1:15 AM 37.4 °F 33.8 °F 21.2 °F 52% 30.17 in 10.0 mi SW 4.6 mph - N/A   Clear
1:35 AM 35.6 °F 30.7 °F 24.8 °F 65% 30.17 in 10.0 mi WNW 5.8 mph - N/A   Clear
1:55 AM 35.6 °F 30.7 °F 24.8 °F 65% 30.16 in 10.0 mi West 5.8 mph - N/A   Clear
2:15 AM 35.6 °F 31.7 °F 24.8 °F 65% 30.16 in 10.0 mi WNW 4.6 mph - N/A   Clear
2:35 AM 33.8 °F - 24.8 °F 70% 30.16 in 10.0 mi Calm Calm - N/A   Clear
2:55 AM 32.0 °F - 23.0 °F 69% 30.15 in 10.0 mi Calm Calm - N/A   Partly Cloudy
3:15 AM 33.8 °F - 24.8 °F 70% 30.14 in 10.0 mi Calm Calm - N/A   Mostly Cloudy
3:35 AM 32.0 °F - 24.8 °F 75% 30.14 in 10.0 mi Calm Calm - N/A   Overcast
3:55 AM 32.0 °F - 26.6 °F 80% 30.14 in 10.0 mi Calm Calm - N/A   Overcast
4:15 AM 33.8 °F 29.6 °F 26.6 °F 75% 30.14 in 10.0 mi East 4.6 mph - N/A   Overcast
4:35 AM 32.0 °F - 26.6 °F 80% 30.14 in 10.0 mi Calm Calm - N/A   Mostly Cloudy
4:55 AM 32.0 °F 28.7 °F 24.8 °F 75% 30.14 in 10.0 mi SW 3.5 mph - N/A   Partly Cloudy
5:15 AM 35.6 °F 29.9 °F 24.8 °F 65% 30.14 in 10.0 mi SW 6.9 mph - N/A   Mostly Cloudy
5:35 AM 37.4 °F 28.5 °F 24.8 °F 60% 30.14 in 10.0 mi SSW 15.0 mph 18.4 mph N/A   Scattered Clouds
5:55 AM 37.4 °F 32.1 °F 26.6 °F 65% 30.15 in 10.0 mi SW 6.9 mph - N/A   Scattered Clouds
6:15 AM 37.4 °F 30.8 °F 26.6 °F 65% 30.15 in 10.0 mi SSW 9.2 mph 16.1 mph N/A   Mostly Cloudy
6:35 AM 35.6 °F 30.7 °F 26.6 °F 70% 30.16 in 10.0 mi SW 5.8 mph - N/A   Mostly Cloudy
6:45 AM 35.6 °F 29.2 °F 26.6 °F 70% 30.16 in 10.0 mi SSW 8.1 mph - N/A   Mostly Cloudy
7:55 AM 37.4 °F - 28.4 °F 70% 30.17 in 10.0 mi Calm Calm - N/A   Overcast
8:55 AM 39.2 °F - 30.2 °F 70% 30.18 in 10.0 mi Calm Calm - N/A   Overcast
9:55 AM 41.0 °F - 32.0 °F 70% 30.17 in 10.0 mi Calm Calm - N/A   Mostly Cloudy
10:55 AM 42.8 °F 40.1 °F 32.0 °F 66% 30.18 in 10.0 mi WNW 4.6 mph - N/A   Mostly Cloudy
11:55 AM 48.2 °F - 32.0 °F 54% 30.17 in 10.0 mi West 12.7 mph 23.0 mph N/A   Mostly Cloudy
12:50 PM 48.2 °F - 32.0 °F 54% 30.17 in 10.0 mi West 19.6 mph 25.3 mph N/A   Mostly Cloudy
1:50 PM 48.2 °F - 30.2 °F 50% 30.16 in 10.0 mi West 12.7 mph 24.2 mph N/A   Mostly Cloudy
3:50 PM 50.0 °F - 28.4 °F 43% 30.14 in 10.0 mi SSW 11.5 mph 20.7 mph N/A   Mostly Cloudy
4:55 PM 48.2 °F - 28.4 °F 46% 30.14 in 10.0 mi WSW 11.5 mph 21.9 mph N/A   Mostly Cloudy
5:45 PM 48.2 °F - 26.6 °F 43% 30.13 in 10.0 mi WSW 10.4 mph 20.7 mph N/A   Scattered Clouds
5:55 PM 48.2 °F - 28.4 °F 46% 30.14 in 10.0 mi WSW 11.5 mph 16.1 mph N/A   Scattered Clouds
6:15 PM 46.4 °F 40.4 °F 28.4 °F 50% 30.14 in 10.0 mi WSW 13.8 mph 18.4 mph N/A   Partly Cloudy
6:35 PM 44.6 °F 39.7 °F 26.6 °F 49% 30.14 in 10.0 mi SW 9.2 mph 20.7 mph N/A   Scattered Clouds
6:55 PM 44.6 °F 38.8 °F 28.4 °F 53% 30.13 in 10.0 mi SW 11.5 mph 18.4 mph N/A   Partly Cloudy
7:15 PM 42.8 °F 37.0 °F 28.4 °F 57% 30.12 in 10.0 mi SW 10.4 mph - N/A   Clear
7:35 PM 41.0 °F 35.8 °F 28.4 °F 61% 30.13 in 10.0 mi WSW 8.1 mph - N/A   Partly Cloudy
7:55 PM 41.0 °F 36.4 °F 28.4 °F 61% 30.14 in 10.0 mi WSW 6.9 mph - N/A   Partly Cloudy
8:15 PM 41.0 °F 39.0 °F 28.4 °F 61% 30.14 in 10.0 mi WSW 3.5 mph - N/A   Scattered Clouds
8:35 PM 41.0 °F - 28.4 °F 61% 30.15 in 10.0 mi Calm Calm - N/A   Overcast
8:55 PM 41.0 °F - 28.4 °F 61% 30.15 in 10.0 mi Calm Calm - N/A   Overcast
9:15 PM 41.0 °F - 28.4 °F 61% 30.16 in 10.0 mi Calm Calm - N/A   Overcast
9:35 PM 41.0 °F - 30.2 °F 65% 30.16 in 10.0 mi Calm Calm - N/A   Overcast
9:55 PM 39.2 °F 35.0 °F 30.2 °F 70% 30.15 in 10.0 mi South 5.8 mph - N/A   Scattered Clouds
10:15 PM 39.2 °F - 28.4 °F 65% 30.16 in 10.0 mi Calm Calm - N/A   Partly Cloudy
10:35 PM 37.4 °F 32.1 °F 28.4 °F 70% 30.14 in 10.0 mi SSE 6.9 mph - N/A   Scattered Clouds
10:55 PM 37.4 °F 32.1 °F 28.4 °F 70% 30.14 in 10.0 mi SSW 6.9 mph - N/A   Clear
11:15 PM 37.4 °F 33.8 °F 28.4 °F 70% 30.15 in 10.0 mi West 4.6 mph - N/A   Clear
11:35 PM 35.6 °F 29.9 °F 28.4 °F 75% 30.14 in 10.0 mi SSW 6.9 mph - N/A   Clear
11:55 PM 37.4 °F 30.8 °F 28.4 °F 70% 30.14 in 10.0 mi SW 9.2 mph - N/A   Unknown